Wind_Speed
21 21 21 22 22 23 23 24 25 25 26 27 28 29 29 29 29 30 30 30 31 31 31 31 31 31 30 30 30 30 30 30 29 30 29 30 30 29 28 29 29 30 30
20 22 22 21 22 23 24 25 25 26 27 28 28 29 30 30 30 30 30 31 31 31 32 33 33 32 32 32 32 32 32 32 31 31 31 31 31 31 30 30 30 29 30
20 21 21 21 22 23 24 25 25 26 27 28 28 29 29 30 30 31 31 31 32 32 32 33 34 34 35 34 34 34 34 34 33 33 32 31 31 31 31 32 32 32 33
20 22 22 23 23 24 24 25 26 27 27 27 28 29 29 30 31 32 32 32 32 32 32 33 33 34 35 35 36 36 35 35 34 34 34 33 32 33 32 32 33 34 33
21 22 23 23 23 23 24 25 26 27 27 28 29 30 30 31 32 33 33 33 33 32 33 33 34 34 34 34 35 35 35 35 35 35 35 34 33 34 34 33 34 34 34
21 22 22 23 23 24 25 25 26 27 28 29 29 30 31 31 32 33 32 33 33 32 33 33 33 33 33 33 33 34 34 33 33 34 34 34 34 34 35 35 34 34 34
20 21 21 22 23 24 25 26 27 28 29 30 30 31 31 31 32 32 32 32 32 32 32 32 33 33 33 33 33 33 33 33 33 32 33 34 35 35 35 35 35 35 35
20 21 22 22 23 24 26 27 28 29 30 30 31 31 32 31 32 31 31 31 31 31 31 31 32 32 32 32 32 33 33 33 33 33 33 33 33 34 35 34 34 34 34
20 21 22 23 24 25 26 27 28 30 30 30 30 31 31 31 30 30 30 30 30 30 30 30 30 30 30 31 31 31 31 31 31 32 32 33 33 33 33 34 35 35 34
21 22 24 25 25 26 27 28 29 29 30 31 31 30 30 30 30 30 30 30 30 29 30 30 30 30 30 30 30 30 30 30 30 30 31 32 32 31 32 33 33 34 35
24 25 26 27 27 28 28 29 30 30 30 30 29 29 29 29 29 29 29 29 29 29 29 29 29 30 29 28 28 27 28 28 28 29 29 29 30 31 32 32 32 32 33
26 27 28 28 28 29 29 29 29 29 29 29 29 28 28 28 28 29 29 29 29 28 28 28 28 28 27 26 26 27 27 27 27 28 28 28 29 30 30 31 31 31 32
27 28 28 29 29 30 30 29 30 29 29 29 28 27 27 27 27 27 28 28 28 28 28 28 27 27 26 26 26 26 26 26 26 27 27 27 27 28 28 29 29 29 29
28 29 29 29 30 30 30 30 30 29 28 28 27 27 26 26 27 27 26 27 27 27 27 27 26 26 25 25 25 25 24 24 25 25 25 25 25 25 25 26 26 26 27
29 30 30 29 29 29 29 29 28 27 27 26 27 26 26 26 26 26 26 26 26 25 25 24 24 24 23 23 23 23 23 23 23 23 23 23 23 23 23 24 24 24 24
29 29 29 29 28 28 28 28 27 26 26 26 26 25 25 25 25 25 24 24 23 22 22 22 22 21 21 20 20 21 21 21 20 20 20 21 21 21 21 21 21 21 21
27 27 27 27 26 27 26 26 25 25 25 25 25 24 24 24 23 21 21 21 20 20 19 19 19 18 18 17 17 17 18 19 18 18 19 19 19 19 18 18 18 18 17
25 25 25 25 26 25 25 25 24 23 23 22 22 22 21 20 20 19 19 19 18 17 17 16 16 15 15 14 14 13 14 15 15 16 16 15 15 16 15 15 15 15 15
24 23 24 23 23 23 23 22 21 21 21 20 19 19 18 17 17 16 15 15 15 14 13 13 13 12 12 12 12 11 12 12 12 13 13 12 12 12 13 13 13 13 13
22 22 22 21 20 19 19 18 18 17 17 16 16 15 14 14 14 13 12 12 13 12 11 11 11 10 10 9 10 10 10 10 10 9 9 10 10 10 10 10 10 10 10
21 20 19 18 17 17 17 16 16 15 15 14 14 13 13 13 12 11 11 10 9 9 9 9 9 9 8 8 7 6 6 7 7 7 7 7 7 7 6 7 7 7 7
19 17 16 15 14 14 14 13 13 13 12 12 11 11 11 11 10 9 8 7 7 7 7 7 7 6 6 6 5 4 4 4 4 4 4 4 5 5 4 4 3 4 5
17 15 13 13 12 11 11 11 11 10 10 10 9 9 8 8 7 7 6 5 5 5 5 5 5 5 4 3 3 4 3 2 3 2 2 2 3 3 3 3 3 3 3
14 12 12 11 11 10 10 10 9 9 9 8 7 7 6 6 6 5 5 5 4 4 5 5 5 5 4 4 3 4 4 4 3 4 4 5 5 5 5 4 3 4 4
12 11 11 11 10 10 9 9 9 9 8 8 7 7 6 6 6 5 5 5 5 5 5 6 6 6 6 5 6 6 6 7 7 7 7 7 7 7 6 5 5 5 5
11 10 10 9 9 9 9 8 9 9 9 9 8 8 7 7 7 7 7 7 6 7 7 7 7 8 8 8 8 9 9 9 9 9 8 8 7 7 7 6 6 6 6
Wind_Direction
269 269 270 274 276 278 280 280 280 282 284 283 281 280 280 280 280 280 279 276 277 278 278 276 274 274 275 274 273 272 271 271 272 269 269 269 269 268 268 268 268 268 267
269 272 273 276 277 279 280 280 282 283 283 283 282 280 281 281 281 281 280 279 280 279 278 276 276 275 274 275 273 272 271 270 270 270 269 268 269 267 266 267 267 269 270
274 276 278 280 280 280 280 281 282 283 283 284 283 281 281 281 282 282 281 280 280 279 276 275 274 275 274 273 273 273 271 270 270 269 269 268 268 267 265 264 265 268 271
275 278 281 281 280 281 282 283 283 284 285 285 284 284 283 282 282 282 282 281 280 279 277 276 276 277 274 272 272 271 270 270 269 268 268 268 267 267 266 266 266 268 270
278 280 281 282 282 283 283 284 285 286 287 286 286 286 285 284 283 282 282 281 280 279 278 277 277 277 275 273 271 269 268 269 268 267 267 268 269 268 267 266 267 268 269
280 281 282 282 284 285 286 286 287 289 288 287 286 286 286 286 285 283 281 281 280 279 279 278 277 276 275 274 272 269 269 268 267 267 267 267 269 268 268 267 267 267 268
282 283 284 285 286 288 288 289 290 291 290 289 288 287 287 287 286 284 283 283 282 281 281 279 278 277 276 275 273 272 269 269 268 267 266 267 267 266 267 268 267 266 266
285 285 287 288 288 289 290 291 291 291 290 291 290 289 287 287 287 286 285 285 285 284 283 281 281 279 277 276 275 272 272 271 270 268 267 267 267 266 266 268 268 267 267
289 290 291 292 291 291 292 293 293 292 291 292 293 291 289 288 288 287 286 286 286 285 284 283 283 282 281 278 275 274 273 272 272 270 269 269 269 268 267 268 268 268 269
292 293 294 294 294 294 294 295 294 295 295 294 293 293 291 289 288 288 288 288 287 287 286 285 284 283 282 280 277 274 273 273 272 271 271 270 270 270 270 270 270 270 270
293 294 295 296 296 295 296 296 296 296 296 295 294 293 292 291 289 289 289 289 289 288 287 286 286 284 282 280 279 277 275 274 273 273 274 273 271 271 270 270 271 272 273
295 295 296 297 297 296 297 298 299 298 297 296 294 293 292 290 291 290 290 289 289 287 285 286 287 286 284 282 280 279 277 276 275 275 275 273 272 272 272 272 272 273 275
296 296 296 296 296 297 297 299 299 299 297 296 294 295 293 292 292 292 290 289 288 287 287 287 286 286 285 282 280 279 276 275 274 274 274 274 275 275 275 275 275 276 277
298 298 298 296 296 297 298 298 298 298 296 295 295 295 294 292 292 292 291 290 289 289 288 288 287 286 284 281 279 277 275 274 273 273 273 275 276 276 277 277 276 276 276
299 298 298 297 297 297 297 297 296 296 296 296 296 296 294 292 292 292 293 293 292 289 288 288 287 286 284 281 278 276 274 275 274 274 274 275 275 276 277 278 278 276 276
300 299 299 298 297 297 296 296 295 296 296 296 297 298 295 293 294 293 294 295 295 292 289 290 289 287 285 282 275 273 272 273 273 273 274 275 276 278 279 279 279 278 278
302 300 298 298 298 297 297 297 296 297 297 297 297 296 296 296 296 294 295 295 296 295 294 293 291 288 285 281 276 274 273 273 273 273 273 275 276 278 280 280 280 280 280
307 305 301 299 298 297 297 298 298 299 299 300 300 298 297 297 299 299 297 295 297 297 297 296 293 291 288 283 280 275 274 273 273 272 272 273 275 276 281 282 282 282 281
309 308 307 305 302 301 301 301 299 300 301 302 302 303 302 302 303 303 303 301 299 300 299 298 299 295 293 287 284 278 276 278 278 277 275 274 273 275 279 282 284 284 284
311 310 308 306 305 305 306 306 306 305 304 304 304 306 306 308 309 307 304 303 303 303 301 299 299 298 300 294 287 282 281 282 283 281 279 277 279 280 278 280 286 288 289
315 313 312 311 312 313 313 312 309 308 308 309 309 309 308 311 312 310 309 309 310 311 309 307 303 304 304 301 302 295 290 288 292 293 289 288 290 289 287 285 286 289 292
321 321 321 321 321 321 321 319 319 317 314 314 315 315 313 312 312 314 319 320 321 322 321 322 320 318 315 310 311 310 314 308 317 322 312 306 307 302 293 302 311 312 310
326 329 332 335 333 330 330 333 333 333 330 324 321 324 327 324 327 329 333 334 336 338 343 347 350 349 346 341 335 343 342 354 12 11 2 6 10 21 30 27 17 4 352
336 341 343 343 342 344 344 345 345 343 340 338 339 342 345 350 359 3 6 7 5 7 11 14 19 25 31 35 36 43 53 55 50 54 57 61 57 50 53 47 38 27 15
340 344 346 348 352 354 355 353 354 354 1 4 10 15 20 25 30 33 36 37 39 40 40 43 47 49 53 57 62 66 67 68 73 74 72 70 64 59 55 49 40 32 23
353 353 354 358 2 5 8 11 15 20 23 29 35 38 40 46 48 48 50 54 56 57 59 59 58 62 68 71 74 75 73 74 75 74 70 64 57 51 49 49 47 44 42
Height
5847 5847 5846 5847 5847 5846 5846 5846 5845 5844 5844 5843 5842 5841 5841 5839 5839 5838 5837 5837 5837 5836 5835 5835 5835 5835 5835 5835 5835 5833 5834 5834 5835 5836 5836 5837 5837 5838 5839 5839 5840 5841 5842
5843 5842 5841 5843 5842 5842 5841 5840 5839 5839 5838 5837 5836 5835 5834 5833 5833 5832 5831 5831 5830 5829 5828 5828 5828 5828 5828 5827 5827 5827 5827 5827 5828 5828 5829 5830 5831 5831 5831 5832 5833 5834 5834
5839 5838 5837 5838 5838 5837 5836 5835 5835 5834 5833 5832 5830 5829 5828 5827 5826 5826 5825 5824 5823 5822 5821 5821 5820 5820 5820 5820 5819 5819 5819 5819 5820 5820 5821 5822 5823 5823 5824 5825 5825 5826 5827
5835 5835 5834 5834 5833 5833 5832 5830 5829 5828 5827 5826 5824 5823 5822 5821 5820 5818 5817 5816 5815 5815 5814 5813 5812 5812 5811 5811 5811 5811 5811 5811 5811 5812 5813 5814 5815 5816 5816 5817 5818 5818 5819
5831 5831 5830 5829 5829 5828 5826 5825 5824 5822 5821 5820 5818 5817 5815 5814 5812 5811 5810 5809 5808 5807 5806 5805 5804 5803 5802 5802 5802 5802 5802 5803 5803 5804 5805 5806 5806 5807 5809 5809 5810 5810 5811
5827 5826 5825 5824 5824 5823 5821 5820 5818 5816 5815 5813 5811 5810 5808 5806 5805 5803 5802 5801 5800 5799 5797 5796 5796 5795 5794 5794 5793 5793 5793 5794 5795 5796 5796 5797 5798 5799 5800 5801 5801 5802 5803
5823 5822 5821 5820 5819 5817 5816 5814 5812 5810 5808 5806 5804 5802 5801 5799 5797 5796 5794 5793 5792 5790 5789 5788 5787 5786 5785 5785 5785 5785 5785 5786 5787 5787 5788 5788 5789 5790 5791 5792 5793 5794 5795
5819 5818 5816 5815 5814 5812 5810 5808 5806 5804 5802 5799 5797 5795 5793 5791 5789 5788 5786 5785 5784 5782 5781 5780 5779 5778 5777 5777 5777 5777 5777 5778 5779 5779 5780 5780 5781 5782 5783 5783 5784 5785 5786
5814 5813 5812 5810 5808 5806 5804 5802 5799 5797 5795 5792 5790 5787 5785 5783 5782 5780 5779 5777 5776 5775 5773 5772 5771 5770 5769 5769 5769 5769 5769 5770 5770 5771 5771 5772 5773 5773 5774 5774 5775 5777 5777
5810 5809 5807 5805 5803 5800 5798 5795 5793 5790 5787 5785 5782 5780 5778 5776 5774 5773 5771 5770 5768 5767 5766 5765 5764 5763 5762 5761 5761 5761 5761 5762 5762 5763 5763 5764 5764 5765 5765 5766 5766 5768 5769
5805 5803 5801 5799 5796 5794 5791 5788 5785 5783 5780 5778 5775 5773 5771 5769 5767 5766 5764 5762 5761 5760 5759 5757 5756 5755 5754 5753 5753 5753 5753 5754 5754 5755 5755 5756 5756 5757 5757 5758 5758 5759 5760
5799 5797 5795 5792 5790 5787 5784 5781 5778 5776 5773 5770 5768 5765 5763 5761 5760 5758 5756 5755 5753 5752 5751 5750 5749 5748 5747 5746 5746 5746 5746 5746 5747 5747 5748 5748 5749 5749 5749 5750 5750 5751 5751
5793 5791 5788 5786 5783 5780 5777 5774 5771 5769 5766 5763 5761 5758 5756 5754 5752 5750 5749 5747 5746 5745 5744 5743 5742 5740 5739 5739 5739 5739 5739 5739 5740 5740 5741 5741 5741 5742 5742 5742 5743 5743 5744
5787 5785 5782 5779 5776 5773 5770 5767 5764 5761 5759 5756 5754 5751 5749 5747 5745 5743 5742 5740 5739 5737 5736 5735 5734 5733 5733 5732 5732 5732 5732 5732 5733 5733 5734 5734 5734 5735 5735 5735 5736 5736 5736
5781 5778 5775 5772 5768 5765 5763 5760 5757 5754 5752 5749 5747 5744 5742 5740 5738 5736 5735 5734 5732 5731 5730 5729 5727 5727 5726 5726 5725 5725 5725 5726 5726 5727 5727 5728 5728 5728 5729 5729 5729 5730 5730
5774 5770 5767 5764 5761 5758 5755 5753 5750 5748 5745 5743 5740 5738 5736 5734 5732 5730 5729 5728 5726 5725 5723 5722 5721 5721 5720 5719 5719 5719 5720 5720 5720 5721 5722 5722 5722 5723 5723 5723 5723 5724 5724
5767 5764 5760 5757 5754 5751 5749 5746 5744 5741 5739 5737 5734 5732 5730 5728 5726 5725 5724 5722 5720 5719 5718 5717 5716 5716 5715 5714 5714 5714 5714 5715 5715 5715 5716 5717 5717 5717 5718 5718 5718 5718 5718
5761 5757 5754 5751 5748 5745 5743 5740 5738 5736 5733 5731 5729 5727 5725 5723 5721 5720 5718 5717 5716 5715 5714 5713 5712 5711 5711 5710 5710 5710 5710 5710 5710 5711 5711 5712 5712 5713 5713 5714 5713 5714 5714
5755 5752 5748 5745 5742 5740 5737 5735 5733 5730 5728 5726 5724 5722 5721 5719 5717 5716 5714 5713 5712 5711 5710 5709 5709 5708 5707 5707 5706 5707 5706 5706 5707 5707 5707 5708 5708 5709 5709 5710 5710 5709 5709
5751 5747 5744 5741 5738 5735 5733 5730 5728 5726 5724 5722 5720 5719 5717 5715 5714 5712 5711 5710 5709 5708 5707 5706 5706 5705 5705 5704 5704 5703 5703 5704 5704 5704 5704 5705 5705 5706 5706 5706 5706 5706 5706
5746 5743 5740 5737 5734 5732 5729 5727 5725 5723 5721 5719 5717 5716 5714 5713 5711 5710 5709 5708 5707 5706 5705 5704 5704 5703 5703 5702 5702 5701 5701 5702 5702 5702 5702 5702 5703 5703 5703 5704 5704 5704 5704
5743 5740 5737 5734 5731 5729 5727 5724 5722 5720 5718 5717 5715 5714 5712 5711 5710 5708 5707 5706 5705 5705 5704 5703 5703 5702 5701 5701 5701 5701 5700 5700 5701 5701 5701 5701 5701 5702 5702 5702 5702 5702 5702
5741 5738 5735 5733 5730 5727 5725 5723 5721 5719 5717 5715 5714 5713 5711 5710 5709 5707 5706 5705 5705 5704 5703 5703 5702 5701 5701 5701 5701 5700 5700 5700 5700 5700 5700 5701 5701 5701 5701 5701 5702 5701 5701
5739 5737 5734 5732 5730 5727 5725 5723 5721 5719 5717 5715 5714 5712 5711 5710 5708 5707 5707 5706 5705 5704 5704 5703 5702 5702 5702 5702 5701 5701 5701 5701 5701 5701 5701 5701 5702 5702 5702 5702 5702 5702 5701
5738 5736 5734 5731 5729 5727 5725 5723 5722 5720 5718 5716 5714 5713 5712 5711 5709 5708 5708 5707 5706 5706 5705 5704 5704 5703 5703 5703 5703 5702 5703 5703 5703 5703 5703 5703 5703 5703 5703 5703 5702 5702 5702
5738 5736 5734 5732 5730 5728 5726 5724 5723 5721 5719 5717 5716 5714 5713 5712 5711 5710 5710 5709 5708 5707 5707 5706 5706 5706 5705 5705 5705 5705 5705 5705 5705 5705 5705 5705 5705 5704 5704 5704 5703 5703 5703